• In Deutschland
  • Länderverzeichnis
  • Für 7 Tage
  • Wassertemperatur
  • Satellitenkarten
  • Wetterkarte
  • Widgets
  • user-avatar
    Anmelden

    Stündliche Wetter Sankt Pölten

    Heute, 25 November, Samstag

    Zeit Temperatur Niederschläge Wind Luftdruck Luftfeuchtigkeit
    00:00 +7°C° 0 mm 1 m/S 735 mmHg 78%
    01:00 +7°C° 0 mm 1 m/S 735 mmHg 81%
    02:00 +7°C° 0 mm 1 m/S 735 mmHg 83%
    03:00 +6°C° 0 mm 1 m/S 734 mmHg 84%
    04:00 +6°C° 0 mm 1 m/S 734 mmHg 86%
    05:00 +5°C° 0 mm 1 m/S 734 mmHg 87%
    06:00 +5°C° 0 mm 1 m/S 733 mmHg 88%
    07:00 +5°C° 0 mm 1 m/S 732 mmHg 89%
    08:00 +6°C° 0 mm 1 m/S 732 mmHg 86%
    09:00 +6°C° 0 mm 2 m/S 731 mmHg 83%
    10:00 +7°C° 0 mm 2 m/S 730 mmHg 80%
    11:00 +8°C° 0 mm 2 m/S 729 mmHg 77%
    12:00 +9°C° 0 mm 2 m/S 729 mmHg 74%
    13:00 +10°C° 0 mm 2 m/S 729 mmHg 71%
    14:00 +10°C° 0 mm 2 m/S 729 mmHg 75%
    15:00 +9°C° 0 mm 2 m/S 729 mmHg 78%
    16:00 +9°C° 0 mm 2 m/S 730 mmHg 81%
    17:00 +8°C° 0,2 mm 3 m/S 731 mmHg 82%
    18:00 +7°C° 0,2 mm 4 m/S 731 mmHg 83%
    19:00 +7°C° 0,2 mm 4 m/S 732 mmHg 84%
    20:00 +7°C° 0,2 mm 4 m/S 732 mmHg 84%
    21:00 +6°C° 0,2 mm 4 m/S 733 mmHg 84%
    22:00 +6°C° 0,2 mm 4 m/S 733 mmHg 83%
    23:00 +5°C° 0,3 mm 4 m/S 734 mmHg 83%

    Morgen, 26 November, Sonntag

    Zeit Temperatur Niederschläge Wind Luftdruck Luftfeuchtigkeit
    00:00 +5°C° 0,3 mm 4 m/S 734 mmHg 82%
    01:00 +5°C° 0,3 mm 4 m/S 735 mmHg 81%
    02:00 +4°C° 0,3 mm 4 m/S 735 mmHg 83%
    03:00 +4°C° 0,3 mm 4 m/S 736 mmHg 84%
    04:00 +4°C° 0,3 mm 4 m/S 736 mmHg 85%
    05:00 +3°C° 0,3 mm 4 m/S 737 mmHg 85%
    06:00 +3°C° 0,3 mm 4 m/S 737 mmHg 84%
    07:00 +1°C° 0,3 mm 4 m/S 738 mmHg 84%
    08:00 +3°C° 0 mm 4 m/S 738 mmHg 82%
    09:00 +3°C° 0 mm 4 m/S 738 mmHg 80%
    10:00 +2°C° 0 mm 5 m/S 739 mmHg 78%
    11:00 +2°C° 0 mm 5 m/S 739 mmHg 76%
    12:00 +2°C° 0 mm 5 m/S 739 mmHg 74%
    13:00 +2°C° 0 mm 5 m/S 739 mmHg 71%
    14:00 +2°C° 0 mm 5 m/S 739 mmHg 72%
    15:00 +1°C° 0 mm 4 m/S 739 mmHg 73%
    16:00 0°C° 0 mm 4 m/S 740 mmHg 74%
    17:00 0°C° 0 mm 4 m/S 740 mmHg 77%
    18:00 -1°C° 0 mm 4 m/S 741 mmHg 80%
    19:00 -1°C° 0 mm 4 m/S 741 mmHg 82%
    20:00 -1°C° 0 mm 4 m/S 741 mmHg 83%
    21:00 -2°C° 0 mm 4 m/S 742 mmHg 84%
    22:00 -2°C° 0 mm 4 m/S 742 mmHg 85%
    23:00 -2°C° 0 mm 4 m/S 742 mmHg 85%

    übermorgen, 27 November, Montag

    Zeit Temperatur Niederschläge Wind Luftdruck Luftfeuchtigkeit
    00:00 -2°C° 0 mm 4 m/S 742 mmHg 85%
    01:00 -2°C° 0 mm 4 m/S 742 mmHg 85%
    02:00 -2°C° 0 mm 4 m/S 743 mmHg 85%
    03:00 -2°C° 0 mm 4 m/S 743 mmHg 85%
    04:00 -2°C° 0 mm 4 m/S 743 mmHg 85%
    05:00 -2°C° 0 mm 4 m/S 743 mmHg 84%
    06:00 -2°C° 0 mm 4 m/S 743 mmHg 84%
    07:00 -2°C° 0 mm 4 m/S 743 mmHg 83%
    08:00 -1°C° 0 mm 4 m/S 743 mmHg 79%
    09:00 0°C° 0 mm 4 m/S 743 mmHg 76%
    10:00 0°C° 0 mm 4 m/S 743 mmHg 72%
    11:00 +1°C° 0 mm 4 m/S 743 mmHg 70%
    12:00 +1°C° 0 mm 4 m/S 743 mmHg 68%
    13:00 +1°C° 0 mm 4 m/S 742 mmHg 65%
    14:00 +1°C° 0 mm 4 m/S 742 mmHg 68%
    15:00 +1°C° 0 mm 3 m/S 742 mmHg 71%
    16:00 +1°C° 0 mm 3 m/S 742 mmHg 74%
    17:00 +1°C° 0 mm 2 m/S 742 mmHg 77%
    18:00 -1°C° 0 mm 2 m/S 742 mmHg 81%
    19:00 -2°C° 0 mm 2 m/S 742 mmHg 84%
    20:00 -2°C° 0 mm 2 m/S 741 mmHg 83%
    21:00 -2°C° 0 mm 2 m/S 741 mmHg 83%
    22:00 -2°C° 0 mm 2 m/S 741 mmHg 83%
    23:00 -2°C° 0 mm 2 m/S 740 mmHg 81%

    28 November, Dienstag

    Zeit Temperatur Niederschläge Wind Luftdruck Luftfeuchtigkeit
    00:00 -2°C° 0 mm 2 m/S 740 mmHg 79%
    01:00 0°C° 0 mm 1 m/S 739 mmHg 77%
    02:00 0°C° 0 mm 1 m/S 739 mmHg 75%
    03:00 0°C° 0 mm 1 m/S 738 mmHg 72%
    04:00 0°C° 0 mm 1 m/S 737 mmHg 70%
    05:00 0°C° 0 mm 1 m/S 737 mmHg 69%
    06:00 0°C° 0 mm 1 m/S 736 mmHg 67%
    07:00 0°C° 0 mm 1 m/S 736 mmHg 66%
    08:00 +2°C° 0 mm 1 m/S 736 mmHg 61%
    09:00 +3°C° 0 mm 1 m/S 735 mmHg 55%
    10:00 +5°C° 0 mm 1 m/S 735 mmHg 50%
    11:00 +6°C° 0 mm 1 m/S 734 mmHg 49%
    12:00 +7°C° 0 mm 1 m/S 733 mmHg 47%
    13:00 +7°C° 0 mm 1 m/S 732 mmHg 46%
    14:00 +6°C° 0 mm 1 m/S 732 mmHg 52%
    15:00 +4°C° 0 mm 1 m/S 732 mmHg 59%
    16:00 +2°C° 0 mm 0 m/S 731 mmHg 65%
    17:00 +3°C° 0 mm 1 m/S 731 mmHg 66%
    18:00 +3°C° 0 mm 1 m/S 731 mmHg 66%
    19:00 +2°C° 0 mm 1 m/S 731 mmHg 67%
    20:00 +3°C° 0 mm 1 m/S 731 mmHg 66%
    21:00 +3°C° 0 mm 1 m/S 731 mmHg 66%
    22:00 +3°C° 0 mm 1 m/S 731 mmHg 65%
    23:00 +3°C° 0 mm 1 m/S 731 mmHg 65%

    29 November, Mittwoch

    Zeit Temperatur Niederschläge Wind Luftdruck Luftfeuchtigkeit
    00:00 +3°C° 0 mm 1 m/S 731 mmHg 65%
    01:00 +3°C° 0 mm 1 m/S 731 mmHg 65%
    02:00 +3°C° 0 mm 1 m/S 730 mmHg 66%
    03:00 +2°C° 0 mm 1 m/S 730 mmHg 68%
    04:00 +2°C° 0 mm 1 m/S 730 mmHg 69%
    05:00 +2°C° 0 mm 1 m/S 730 mmHg 70%
    06:00 +2°C° 0 mm 1 m/S 730 mmHg 72%
    07:00 +2°C° 0 mm 1 m/S 730 mmHg 73%
    08:00 +3°C° 0 mm 1 m/S 730 mmHg 71%
    09:00 +4°C° 0 mm 1 m/S 730 mmHg 68%
    10:00 +4°C° 0 mm 0 m/S 730 mmHg 66%
    11:00 +5°C° 0 mm 1 m/S 730 mmHg 65%
    12:00 +6°C° 0 mm 1 m/S 729 mmHg 64%
    13:00 +6°C° 0 mm 1 m/S 729 mmHg 63%
    14:00 +5°C° 0 mm 1 m/S 729 mmHg 70%
    15:00 +4°C° 0 mm 1 m/S 729 mmHg 77%
    16:00 +2°C° 0 mm 1 m/S 729 mmHg 84%
    17:00 +2°C° 0 mm 1 m/S 729 mmHg 85%
    18:00 +1°C° 0 mm 0 m/S 729 mmHg 87%
    19:00 0°C° 0 mm 0 m/S 729 mmHg 88%
    20:00 0°C° 0,2 mm 0 m/S 729 mmHg 88%
    21:00 +2°C° 0,2 mm 1 m/S 729 mmHg 89%
    22:00 +2°C° 0,2 mm 1 m/S 729 mmHg 89%
    23:00 +2°C° 0,3 mm 1 m/S 729 mmHg 90%

    30 November, Donnerstag

    Zeit Temperatur Niederschläge Wind Luftdruck Luftfeuchtigkeit
    00:00 +2°C° 0,3 mm 1 m/S 729 mmHg 91%
    01:00 +2°C° 0,3 mm 1 m/S 729 mmHg 92%
    02:00 +2°C° 0,2 mm 1 m/S 728 mmHg 92%
    03:00 +2°C° 0,2 mm 1 m/S 728 mmHg 92%
    04:00 +2°C° 0,2 mm 1 m/S 728 mmHg 93%
    05:00 +2°C° 0,1 mm 1 m/S 728 mmHg 92%
    06:00 +1°C° 0,1 mm 2 m/S 728 mmHg 91%
    07:00 -1°C° 0,1 mm 2 m/S 728 mmHg 90%
    08:00 +1°C° 0 mm 2 m/S 727 mmHg 86%
    09:00 0°C° 0 mm 3 m/S 727 mmHg 81%
    10:00 +1°C° 0 mm 3 m/S 727 mmHg 77%
    11:00 +1°C° 0 mm 3 m/S 727 mmHg 76%
    12:00 +2°C° 0 mm 3 m/S 727 mmHg 74%
    13:00 +2°C° 0 mm 3 m/S 727 mmHg 73%
    14:00 +1°C° 0 mm 3 m/S 727 mmHg 76%
    15:00 +2°C° 0 mm 2 m/S 727 mmHg 80%
    16:00 +1°C° 0 mm 2 m/S 727 mmHg 83%
    17:00 +1°C° 0 mm 2 m/S 728 mmHg 85%
    18:00 -1°C° 0 mm 2 m/S 728 mmHg 86%
    19:00 -1°C° 0 mm 2 m/S 728 mmHg 88%
    20:00 -2°C° 0 mm 2 m/S 728 mmHg 89%
    21:00 -2°C° 0 mm 2 m/S 729 mmHg 90%
    22:00 -2°C° 0 mm 2 m/S 729 mmHg 91%
    23:00 0°C° 0 mm 1 m/S 729 mmHg 91%
    Mehr zeigen